| time (UTC) | temp C | wind direction | speed KPH | gust KPH | rain 1hr cm | rain 24hr cm | rain mn cm | humidity % | barometer mb |
| 20260510082946 | 17 | 61 | 0.0 | 4.8 | 0.00 | 0.00 | 0.00 | 72 | 1014.7 |
| 20260510082444 | 17 | 141 | 4.8 | 4.8 | 0.00 | 0.00 | 0.00 | 72 | 1014.5 |
| 20260510081943 | 16 | 78 | 3.2 | 4.8 | 0.00 | 0.00 | 0.00 | 74 | 1014.8 |
| 20260510081439 | 16 | 104 | 3.2 | 3.2 | 0.00 | 0.00 | 0.00 | 76 | 1014.9 |
| 20260510080936 | 16 | 122 | 0.0 | 3.2 | 0.00 | 0.00 | 0.00 | 76 | 1014.7 |
| 20260510080434 | 16 | 113 | 0.0 | 4.8 | 0.00 | 0.00 | 0.00 | 76 | 1014.8 |
| 20260510075931 | 16 | 129 | 0.0 | 4.8 | 0.00 | 0.00 | 0.00 | 76 | 1014.7 |
| 20260510075429 | 16 | 141 | 3.2 | 6.4 | 0.00 | 0.00 | 0.00 | 78 | 1014.7 |
| 20260510074926 | 16 | 85 | 1.6 | 3.2 | 0.00 | 0.00 | 0.00 | 78 | 1014.8 |
| 20260510074423 | 16 | 132 | 0.0 | 3.2 | 0.00 | 0.00 | 0.00 | 78 | 1014.7 |
| 20260510073919 | 16 | 146 | 1.6 | 3.2 | 0.00 | 0.00 | 0.00 | 78 | 1014.7 |
| 20260510073415 | 16 | 118 | 3.2 | 3.2 | 0.00 | 0.00 | 0.00 | 78 | 1014.6 |
| 20260510072911 | 16 | 49 | 1.6 | 1.6 | 0.00 | 0.00 | 0.00 | 78 | 1014.3 |
| 20260510072408 | 16 | 21 | 0.0 | 3.2 | 0.00 | 0.00 | 0.00 | 78 | 1014.3 |
| 20260510071904 | 16 | 57 | 3.2 | 4.8 | 0.00 | 0.00 | 0.00 | 79 | 1014.6 |
| 20260510071401 | 16 | 106 | 0.0 | 4.8 | 0.00 | 0.00 | 0.00 | 79 | 1014.6 |
| 20260510070859 | 16 | 85 | 1.6 | 3.2 | 0.00 | 0.00 | 0.00 | 79 | 1014.7 |
| 20260510070356 | 16 | 43 | 0.0 | 1.6 | 0.00 | 0.00 | 0.00 | 79 | 1014.8 |
| 20260510065856 | 16 | 89 | 0.0 | 3.2 | 0.00 | 0.00 | 0.00 | 78 | 1014.9 |
| 20260510065353 | 16 | 133 | 0.0 | 3.2 | 0.00 | 0.00 | 0.00 | 77 | 1014.9 |
| 20260510064849 | 16 | 121 | 0.0 | 3.2 | 0.00 | 0.00 | 0.00 | 77 | 1014.9 |
| 20260510064347 | 16 | 136 | 3.2 | 3.2 | 0.00 | 0.00 | 0.00 | 76 | 1015.0 |
| 20260510063843 | 16 | 33 | 0.0 | 1.6 | 0.00 | 0.00 | 0.00 | 76 | 1015.4 |
| 20260510063340 | 16 | 178 | 3.2 | 3.2 | 0.00 | 0.00 | 0.00 | 76 | 1015.4 |
| 20260510062837 | 16 | 108 | 1.6 | 1.6 | 0.00 | 0.00 | 0.00 | 75 | 1015.4 |
| 20260510062332 | 16 | 66 | 0.0 | 3.2 | 0.00 | 0.00 | 0.00 | 75 | 1015.6 |
| 20260510061827 | 16 | 30 | 0.0 | 3.2 | 0.00 | 0.00 | 0.00 | 74 | 1015.5 |
| 20260510061325 | 17 | 100 | 0.0 | 1.6 | 0.00 | 0.00 | 0.00 | 73 | 1015.7 |
| 20260510060820 | 17 | 94 | 1.6 | 3.2 | 0.00 | 0.00 | 0.00 | 73 | 1015.8 |
| 20260510060318 | 17 | 102 | 0.0 | 1.6 | 0.00 | 0.00 | 0.00 | 72 | 1015.8 |
| 20260510055815 | 17 | 89 | 0.0 | 1.6 | 0.00 | 0.00 | 0.00 | 72 | 1015.4 |
| 20260510055313 | 16 | 72 | 3.2 | 3.2 | 0.00 | 0.00 | 0.00 | 71 | 1015.4 |
| 20260510054813 | 16 | 89 | 0.0 | 1.6 | 0.00 | 0.00 | 0.00 | 71 | 1015.4 |
| 20260510054309 | 16 | 38 | 0.0 | 1.6 | 0.00 | 0.00 | 0.00 | 71 | 1015.2 |
| 20260510053804 | 17 | 110 | 3.2 | 3.2 | 0.00 | 0.00 | 0.00 | 71 | 1015.4 |
| 20260510053259 | 16 | 99 | 3.2 | 4.8 | 0.00 | 0.00 | 0.00 | 70 | 1015.2 |
| 20260510052756 | 17 | 26 | 0.0 | 3.2 | 0.00 | 0.00 | 0.00 | 70 | 1015.3 |
| 20260510052251 | 16 | 47 | 3.2 | 3.2 | 0.00 | 0.00 | 0.00 | 70 | 1015.3 |
| 20260510051748 | 16 | 82 | 0.0 | 4.8 | 0.00 | 0.00 | 0.00 | 70 | 1015.2 |
| 20260510051245 | 16 | 124 | 3.2 | 3.2 | 0.00 | 0.00 | 0.00 | 71 | 1015.1 |
| 20260510050741 | 16 | 99 | 3.2 | 3.2 | 0.00 | 0.00 | 0.00 | 71 | 1015.2 |
| 20260510050239 | 16 | 32 | 0.0 | 1.6 | 0.00 | 0.00 | 0.00 | 70 | 1014.9 |
| 20260510045735 | 16 | 165 | 1.6 | 3.2 | 0.00 | 0.00 | 0.00 | 70 | 1014.9 |
| 20260510045232 | 16 | 135 | 1.6 | 3.2 | 0.00 | 0.00 | 0.00 | 69 | 1015.0 |
| 20260510044729 | 16 | 129 | 1.6 | 3.2 | 0.00 | 0.00 | 0.00 | 68 | 1014.7 |
| 20260510044227 | 16 | 52 | 0.0 | 1.6 | 0.00 | 0.00 | 0.00 | 68 | 1014.9 |
| 20260510043721 | 16 | 55 | 0.0 | 1.6 | 0.00 | 0.00 | 0.00 | 68 | 1014.7 |
| 20260510043219 | 17 | 102 | 0.0 | 1.6 | 0.00 | 0.00 | 0.00 | 66 | 1014.8 |
| 20260510042716 | 17 | 66 | 0.0 | 1.6 | 0.00 | 0.00 | 0.00 | 67 | 1014.7 |
| 20260510042212 | 17 | 55 | 0.0 | 3.2 | 0.00 | 0.00 | 0.00 | 65 | 1014.5 |
| 20260510041709 | 17 | 57 | 1.6 | 1.6 | 0.00 | 0.00 | 0.00 | 65 | 1014.9 |
| 20260510041206 | 17 | 56 | 0.0 | 1.6 | 0.00 | 0.00 | 0.00 | 65 | 1014.8 |
| 20260510040703 | 17 | 82 | 1.6 | 1.6 | 0.00 | 0.00 | 0.00 | 66 | 1014.7 |
| 20260510040200 | 16 | 89 | 0.0 | 1.6 | 0.00 | 0.00 | 0.00 | 66 | 1014.6 |
| 20260510035655 | 16 | 84 | 0.0 | 0.0 | 0.00 | 0.00 | 0.00 | 65 | 1014.6 |
| 20260510035151 | 16 | 95 | 0.0 | 0.0 | 0.00 | 0.00 | 0.00 | 65 | 1014.8 |
| 20260510034647 | 16 | 89 | 0.0 | 0.0 | 0.00 | 0.00 | 0.00 | 65 | 1014.6 |
| 20260510034145 | 16 | 103 | 0.0 | 1.6 | 0.00 | 0.00 | 0.00 | 65 | 1014.3 |
| 20260510033641 | 17 | 110 | 0.0 | 1.6 | 0.00 | 0.00 | 0.00 | 64 | 1014.3 |
| 20260510033139 | 17 | 131 | 0.0 | 1.6 | 0.00 | 0.00 | 0.00 | 62 | 1014.1 |
| 20260510032635 | 17 | 99 | 0.0 | 1.6 | 0.00 | 0.00 | 0.00 | 61 | 1014.1 |
| 20260510032130 | 17 | 84 | 1.6 | 1.6 | 0.00 | 0.00 | 0.00 | 61 | 1013.8 |
| 20260510031625 | 17 | 97 | 1.6 | 1.6 | 0.00 | 0.00 | 0.00 | 61 | 1013.8 |
| 20260510031122 | 17 | 89 | 0.0 | 1.6 | 0.00 | 0.00 | 0.00 | 60 | 1013.6 |
| 20260510030617 | 17 | 79 | 0.0 | 1.6 | 0.00 | 0.00 | 0.00 | 60 | 1013.6 |
| 20260510030115 | 17 | 89 | 0.0 | 0.0 | 0.00 | 0.00 | 0.00 | 59 | 1013.6 |
| 20260510025612 | 17 | 70 | 1.6 | 1.6 | 0.00 | 0.00 | 0.00 | 59 | 1013.4 |
| 20260510025109 | 17 | 50 | 0.0 | 1.6 | 0.00 | 0.00 | 0.00 | 59 | 1013.5 |
| 20260510024606 | 17 | 87 | 0.0 | 1.6 | 0.00 | 0.00 | 0.00 | 59 | 1013.5 |
| 20260510024102 | 17 | 57 | 0.0 | 1.6 | 0.00 | 0.00 | 0.00 | 59 | 1013.5 |
| 20260510023558 | 17 | 50 | 1.6 | 3.2 | 0.00 | 0.00 | 0.00 | 60 | 1013.2 |
| 20260510023056 | 17 | 60 | 0.0 | 1.6 | 0.00 | 0.00 | 0.00 | 60 | 1013.0 |
| 20260510022556 | 18 | 89 | 0.0 | 0.0 | 0.00 | 0.00 | 0.00 | 56 | 1013.0 |
| 20260510022056 | 18 | 89 | 0.0 | 0.0 | 0.00 | 0.00 | 0.00 | 56 | 1013.0 |
| 20260510021552 | 18 | 89 | 0.0 | 0.0 | 0.00 | 0.00 | 0.00 | 55 | 1013.0 |
| 20260510021050 | 18 | 129 | 0.0 | 0.0 | 0.00 | 0.00 | 0.00 | 55 | 1012.7 |
| 20260510020544 | 19 | 129 | 0.0 | 0.0 | 0.00 | 0.00 | 0.00 | 54 | 1012.4 |
| 20260510020040 | 19 | 129 | 0.0 | 0.0 | 0.00 | 0.00 | 0.00 | 54 | 1012.4 |
| 20260510015535 | 20 | 50 | 0.0 | 0.0 | 0.00 | 0.00 | 0.00 | 51 | 1012.4 |
| 20260510015032 | 20 | 37 | 0.0 | 0.0 | 0.00 | 0.00 | 0.00 | 51 | 1012.1 |
| 20260510014528 | 20 | 41 | 0.0 | 0.0 | 0.00 | 0.00 | 0.00 | 51 | 1012.2 |
| 20260510014026 | 20 | 50 | 0.0 | 0.0 | 0.00 | 0.00 | 0.00 | 50 | 1012.2 |
| 20260510013520 | 20 | 89 | 0.0 | 0.0 | 0.00 | 0.00 | 0.00 | 49 | 1012.0 |
| 20260510013016 | 21 | 129 | 0.0 | 0.0 | 0.00 | 0.00 | 0.00 | 48 | 1012.0 |
| 20260510012510 | 22 | 117 | 0.0 | 3.2 | 0.00 | 0.00 | 0.00 | 44 | 1011.7 |
| 20260510012007 | 22 | 117 | 0.0 | 3.2 | 0.00 | 0.00 | 0.00 | 44 | 1011.7 |
| 20260510011500 | 22 | 106 | 0.0 | 1.6 | 0.00 | 0.00 | 0.00 | 44 | 1011.7 |
| 20260510010957 | 22 | 147 | 0.0 | 1.6 | 0.00 | 0.00 | 0.00 | 43 | 1011.9 |
| 20260510010454 | 23 | 70 | 0.0 | 3.2 | 0.00 | 0.00 | 0.00 | 42 | 1011.7 |
| 20260510005951 | 23 | 125 | 3.2 | 3.2 | 0.00 | 0.00 | 0.00 | 41 | 1011.7 |
| 20260510005447 | 23 | 31 | 0.0 | 3.2 | 0.00 | 0.00 | 0.00 | 40 | 1011.5 |
| 20260510004945 | 23 | 40 | 0.0 | 3.2 | 0.00 | 0.00 | 0.00 | 39 | 1011.5 |
| 20260510004441 | 24 | 89 | 0.0 | 1.6 | 0.00 | 0.00 | 0.00 | 38 | 1011.6 |
| 20260510003940 | 25 | 102 | 0.0 | 3.2 | 0.00 | 0.00 | 0.00 | 37 | 1011.6 |
| 20260510003436 | 25 | 38 | 1.6 | 3.2 | 0.00 | 0.00 | 0.00 | 36 | 1011.5 |
| 20260510002936 | 25 | 127 | 3.2 | 4.8 | 0.00 | 0.00 | 0.00 | 36 | 1011.5 |
| 20260510002433 | 25 | 188 | 0.0 | 4.8 | 0.00 | 0.00 | 0.00 | 35 | 1011.7 |
| 20260510001929 | 25 | 188 | 0.0 | 4.8 | 0.00 | 0.00 | 0.00 | 35 | 1011.7 |
| 20260510001427 | 26 | 158 | 4.8 | 4.8 | 0.00 | 0.00 | 0.00 | 35 | 1011.5 |
| 20260510000925 | 26 | 144 | 3.2 | 3.2 | 0.00 | 0.00 | 0.00 | 34 | 1011.5 |
| 20260510000421 | 26 | 150 | 3.2 | 4.8 | 0.00 | 0.00 | 0.00 | 33 | 1011.4 |
| 20260509235917 | 27 | 147 | 3.2 | 6.4 | 0.00 | 0.00 | 0.00 | 32 | 1011.7 |
| 20260509235414 | 28 | 286 | 0.0 | 3.2 | 0.00 | 0.00 | 0.00 | 32 | 1011.6 |
| 20260509234910 | 29 | 168 | 0.0 | 3.2 | 0.00 | 0.00 | 0.00 | 32 | 1011.8 |
| 20260509234407 | 28 | 157 | 0.0 | 3.2 | 0.00 | 0.00 | 0.00 | 31 | 1011.8 |
| 20260509233905 | 28 | 238 | 1.6 | 3.2 | 0.00 | 0.00 | 0.00 | 32 | 1011.7 |
| 20260509233403 | 28 | 254 | 3.2 | 3.2 | 0.00 | 0.00 | 0.00 | 31 | 1011.7 |
| 20260509232858 | 28 | 274 | 3.2 | 4.8 | 0.00 | 0.00 | 0.00 | 32 | 1011.9 |
| 20260509232356 | 28 | 139 | 1.6 | 4.8 | 0.00 | 0.00 | 0.00 | 32 | 1011.8 |
| 20260509231851 | 28 | 129 | 4.8 | 8.0 | 0.00 | 0.00 | 0.00 | 32 | 1011.6 |
| 20260509231349 | 29 | 121 | 3.2 | 3.2 | 0.00 | 0.00 | 0.00 | 32 | 1011.9 |
| 20260509230847 | 29 | 121 | 3.2 | 3.2 | 0.00 | 0.00 | 0.00 | 32 | 1011.9 |
| 20260509230343 | 30 | 150 | 3.2 | 4.8 | 0.00 | 0.00 | 0.00 | 31 | 1012.0 |
| 20260509225839 | 29 | 138 | 3.2 | 3.2 | 0.00 | 0.00 | 0.00 | 31 | 1011.8 |
| 20260509225336 | 29 | 127 | 3.2 | 9.7 | 0.00 | 0.00 | 0.00 | 32 | 1011.9 |
| 20260509224832 | 29 | 238 | 4.8 | 6.4 | 0.00 | 0.00 | 0.00 | 32 | 1011.9 |
| 20260509224328 | 29 | 240 | 8.0 | 9.7 | 0.00 | 0.00 | 0.00 | 31 | 1011.8 |
| 20260509223825 | 29 | 240 | 8.0 | 9.7 | 0.00 | 0.00 | 0.00 | 31 | 1011.8 |
| 20260509223322 | 29 | 254 | 0.0 | 3.2 | 0.00 | 0.00 | 0.00 | 34 | 1011.9 |
| 20260509222819 | 30 | 234 | 3.2 | 4.8 | 0.00 | 0.00 | 0.00 | 33 | 1012.0 |
| 20260509222314 | 30 | 290 | 1.6 | 4.8 | 0.00 | 0.00 | 0.00 | 33 | 1011.8 |
| 20260509221810 | 30 | 240 | 0.0 | 6.4 | 0.00 | 0.00 | 0.00 | 33 | 1012.0 |
| 20260509221307 | 30 | 250 | 6.4 | 6.4 | 0.00 | 0.00 | 0.00 | 30 | 1011.6 |
| 20260509220802 | 28 | 256 | 3.2 | 8.0 | 0.00 | 0.00 | 0.00 | 31 | 1011.7 |
| 20260509220259 | 28 | 194 | 3.2 | 6.4 | 0.00 | 0.00 | 0.00 | 32 | 1011.9 |
| 20260509215754 | 29 | 163 | 0.0 | 4.8 | 0.00 | 0.00 | 0.00 | 32 | 1011.9 |
| 20260509215251 | 29 | 137 | 8.0 | 12.9 | 0.00 | 0.00 | 0.00 | 32 | 1011.8 |
| 20260509214748 | 29 | 327 | 0.0 | 3.2 | 0.00 | 0.00 | 0.00 | 34 | 1011.8 |
| 20260509214245 | 30 | 137 | 8.0 | 8.0 | 0.00 | 0.00 | 0.00 | 32 | 1012.0 |
| 20260509213742 | 29 | 214 | 4.8 | 4.8 | 0.00 | 0.00 | 0.00 | 31 | 1011.7 |
| 20260509213237 | 29 | 173 | 3.2 | 6.4 | 0.00 | 0.00 | 0.00 | 32 | 1012.0 |
| 20260509212735 | 29 | 114 | 0.0 | 6.4 | 0.00 | 0.00 | 0.00 | 32 | 1012.0 |
| 20260509212232 | 29 | 145 | 3.2 | 4.8 | 0.00 | 0.00 | 0.00 | 34 | 1011.9 |
| 20260509211728 | 29 | 121 | 1.6 | 6.4 | 0.00 | 0.00 | 0.00 | 31 | 1012.1 |
| 20260509211225 | 29 | 168 | 3.2 | 4.8 | 0.00 | 0.00 | 0.00 | 34 | 1012.1 |
| 20260509210721 | 29 | 276 | 1.6 | 8.0 | 0.00 | 0.00 | 0.00 | 34 | 1012.0 |
| 20260509210219 | 29 | 182 | 3.2 | 6.4 | 0.00 | 0.00 | 0.00 | 34 | 1012.3 |
| 20260509205718 | 28 | 218 | 0.0 | 4.8 | 0.00 | 0.00 | 0.00 | 34 | 1012.2 |
| 20260509205218 | 29 | 167 | 4.8 | 6.4 | 0.00 | 0.00 | 0.00 | 34 | 1012.4 |
| 20260509204714 | 28 | 148 | 3.2 | 3.2 | 0.00 | 0.00 | 0.00 | 33 | 1012.4 |
| 20260509204211 | 28 | 79 | 0.0 | 4.8 | 0.00 | 0.00 | 0.00 | 35 | 1012.5 |
| 20260509203707 | 28 | 229 | 4.8 | 8.0 | 0.00 | 0.00 | 0.00 | 33 | 1012.5 |
| 20260509203206 | 28 | 195 | 1.6 | 9.7 | 0.00 | 0.00 | 0.00 | 34 | 1012.6 |
| 20260509202701 | 27 | 94 | 4.8 | 12.9 | 0.00 | 0.00 | 0.00 | 34 | 1012.6 |
| 20260509202155 | 28 | 171 | 0.0 | 9.7 | 0.00 | 0.00 | 0.00 | 33 | 1012.5 |
| 20260509201651 | 29 | 158 | 8.0 | 8.0 | 0.00 | 0.00 | 0.00 | 33 | 1012.5 |
| 20260509201148 | 29 | 240 | 1.6 | 6.4 | 0.00 | 0.00 | 0.00 | 36 | 1012.8 |
| 20260509200644 | 29 | 81 | 3.2 | 6.4 | 0.00 | 0.00 | 0.00 | 34 | 1012.7 |
| 20260509200140 | 29 | 158 | 3.2 | 6.4 | 0.00 | 0.00 | 0.00 | 34 | 1012.7 |
| 20260509195636 | 28 | 356 | 1.6 | 6.4 | 0.00 | 0.00 | 0.00 | 31 | 1012.8 |
| 20260509195131 | 28 | 6 | 1.6 | 3.2 | 0.00 | 0.00 | 0.00 | 32 | 1012.6 |
| 20260509194630 | 28 | 55 | 0.0 | 4.8 | 0.00 | 0.00 | 0.00 | 34 | 1012.6 |
| 20260509194128 | 28 | 142 | 1.6 | 12.9 | 0.00 | 0.00 | 0.00 | 34 | 1012.8 |
| 20260509193624 | 28 | 200 | 0.0 | 8.0 | 0.00 | 0.00 | 0.00 | 35 | 1012.6 |
| 20260509193120 | 28 | 166 | 0.0 | 8.0 | 0.00 | 0.00 | 0.00 | 35 | 1012.9 |
| 20260509192617 | 27 | 74 | 0.0 | 3.2 | 0.00 | 0.00 | 0.00 | 32 | 1012.8 |
| 20260509192112 | 27 | 200 | 0.0 | 6.4 | 0.00 | 0.00 | 0.00 | 33 | 1012.9 |
| 20260509191606 | 28 | 187 | 3.2 | 6.4 | 0.00 | 0.00 | 0.00 | 34 | 1013.0 |
| 20260509191103 | 28 | 238 | 1.6 | 3.2 | 0.00 | 0.00 | 0.00 | 33 | 1013.0 |
| 20260509190559 | 28 | 271 | 3.2 | 4.8 | 0.00 | 0.00 | 0.00 | 36 | 1013.1 |
| 20260509190057 | 27 | 264 | 1.6 | 4.8 | 0.00 | 0.00 | 0.00 | 34 | 1013.1 |
| 20260509185555 | 27 | 271 | 0.0 | 9.7 | 0.00 | 0.00 | 0.00 | 36 | 1013.1 |
| 20260509185050 | 27 | 82 | 0.0 | 6.4 | 0.00 | 0.00 | 0.00 | 34 | 1013.1 |
| 20260509184549 | 27 | 83 | 1.6 | 4.8 | 0.00 | 0.00 | 0.00 | 37 | 1013.1 |
| 20260509184045 | 27 | 55 | 3.2 | 9.7 | 0.00 | 0.00 | 0.00 | 36 | 1013.3 |
| 20260509183540 | 27 | 59 | 3.2 | 6.4 | 0.00 | 0.00 | 0.00 | 34 | 1013.3 |
| 20260509183036 | 27 | 153 | 1.6 | 8.0 | 0.00 | 0.00 | 0.00 | 37 | 1013.2 |
| 20260509182533 | 26 | 219 | 1.6 | 8.0 | 0.00 | 0.00 | 0.00 | 36 | 1013.1 |
| 20260509182025 | 27 | 230 | 0.0 | 8.0 | 0.00 | 0.00 | 0.00 | 35 | 1013.0 |
| 20260509181523 | 27 | 138 | 3.2 | 6.4 | 0.00 | 0.00 | 0.00 | 38 | 1013.2 |
| 20260509181020 | 27 | 200 | 3.2 | 4.8 | 0.00 | 0.00 | 0.00 | 39 | 1013.3 |
| 20260509180515 | 27 | 130 | 1.6 | 3.2 | 0.00 | 0.00 | 0.00 | 39 | 1013.2 |
| 20260509180013 | 27 | 146 | 1.6 | 4.8 | 0.00 | 0.00 | 0.00 | 37 | 1013.3 |
| 20260509175508 | 27 | 222 | 1.6 | 9.7 | 0.00 | 0.00 | 0.00 | 42 | 1013.3 |
| 20260509175005 | 27 | 241 | 3.2 | 6.4 | 0.00 | 0.00 | 0.00 | 38 | 1013.4 |
| 20260509174502 | 27 | 132 | 0.0 | 3.2 | 0.00 | 0.00 | 0.00 | 39 | 1013.2 |
| 20260509174001 | 26 | 159 | 3.2 | 4.8 | 0.00 | 0.00 | 0.00 | 44 | 1013.1 |
| 20260509173456 | 26 | 248 | 3.2 | 6.4 | 0.00 | 0.00 | 0.00 | 43 | 1013.3 |
| 20260509172953 | 26 | 3 | 1.6 | 3.2 | 0.00 | 0.00 | 0.00 | 43 | 1013.4 |
| 20260509172450 | 26 | 199 | 4.8 | 6.4 | 0.00 | 0.00 | 0.00 | 43 | 1013.6 |
| 20260509171946 | 26 | 215 | 4.8 | 6.4 | 0.00 | 0.00 | 0.00 | 42 | 1013.6 |
| 20260509171442 | 26 | 10 | 1.6 | 6.4 | 0.00 | 0.00 | 0.00 | 43 | 1013.4 |
| 20260509170938 | 26 | 115 | 1.6 | 4.8 | 0.00 | 0.00 | 0.00 | 47 | 1013.4 |
| 20260509170434 | 25 | 134 | 6.4 | 9.7 | 0.00 | 0.00 | 0.00 | 50 | 1013.6 |
| 20260509165931 | 25 | 202 | 4.8 | 8.0 | 0.00 | 0.00 | 0.00 | 49 | 1013.5 |
| 20260509165430 | 25 | 155 | 4.8 | 4.8 | 0.00 | 0.00 | 0.00 | 55 | 1013.5 |
| 20260509164926 | 25 | 131 | 3.2 | 6.4 | 0.00 | 0.00 | 0.00 | 52 | 1013.3 |
| 20260509164422 | 25 | 101 | 4.8 | 4.8 | 0.00 | 0.00 | 0.00 | 49 | 1013.3 |
| 20260509163918 | 26 | 227 | 8.0 | 8.0 | 0.00 | 0.00 | 0.00 | 50 | 1013.3 |
| 20260509163416 | 25 | 355 | 1.6 | 4.8 | 0.00 | 0.00 | 0.00 | 60 | 1013.5 |
| 20260509162914 | 25 | 202 | 0.0 | 6.4 | 0.00 | 0.00 | 0.00 | 59 | 1013.5 |
| 20260509162413 | 25 | 181 | 6.4 | 6.4 | 0.00 | 0.00 | 0.00 | 55 | 1013.7 |
| 20260509161909 | 25 | 157 | 3.2 | 8.0 | 0.00 | 0.00 | 0.00 | 59 | 1013.6 |
| 20260509161405 | 25 | 165 | 1.6 | 4.8 | 0.00 | 0.00 | 0.00 | 62 | 1013.8 |
| 20260509160901 | 24 | 213 | 3.2 | 4.8 | 0.00 | 0.00 | 0.00 | 58 | 1013.7 |
| 20260509160357 | 24 | 63 | 0.0 | 3.2 | 0.00 | 0.00 | 0.00 | 59 | 1013.7 |
| 20260509155852 | 25 | 212 | 1.6 | 8.0 | 0.00 | 0.00 | 0.00 | 56 | 1013.6 |
| 20260509155349 | 25 | 243 | 0.0 | 4.8 | 0.00 | 0.00 | 0.00 | 57 | 1013.5 |
| 20260509154845 | 24 | 79 | 3.2 | 3.2 | 0.00 | 0.00 | 0.00 | 60 | 1013.7 |
| 20260509154342 | 23 | 156 | 1.6 | 6.4 | 0.00 | 0.00 | 0.00 | 62 | 1013.7 |
| 20260509153839 | 23 | 296 | 1.6 | 3.2 | 0.00 | 0.00 | 0.00 | 66 | 1013.8 |
| 20260509153336 | 23 | 212 | 3.2 | 6.4 | 0.00 | 0.00 | 0.00 | 67 | 1013.8 |
| 20260509152833 | 22 | 197 | 1.6 | 6.4 | 0.00 | 0.00 | 0.00 | 68 | 1013.7 |
| 20260509152329 | 23 | 239 | 1.6 | 3.2 | 0.00 | 0.00 | 0.00 | 66 | 1013.7 |
| 20260509151827 | 22 | 199 | 1.6 | 6.4 | 0.00 | 0.00 | 0.00 | 67 | 1013.7 |
| 20260509151322 | 22 | 190 | 3.2 | 6.4 | 0.00 | 0.00 | 0.00 | 67 | 1013.6 |
| 20260509150821 | 22 | 242 | 4.8 | 6.4 | 0.00 | 0.00 | 0.00 | 68 | 1013.6 |
| 20260509150318 | 22 | 216 | 4.8 | 8.0 | 0.00 | 0.00 | 0.00 | 68 | 1013.6 |
| 20260509145815 | 22 | 260 | 1.6 | 4.8 | 0.00 | 0.00 | 0.00 | 67 | 1013.5 |
| 20260509145315 | 22 | 179 | 3.2 | 4.8 | 0.00 | 0.00 | 0.00 | 68 | 1013.5 |
| 20260509144812 | 21 | 255 | 3.2 | 4.8 | 0.00 | 0.00 | 0.00 | 70 | 1013.8 |
| 20260509144309 | 21 | 235 | 3.2 | 8.0 | 0.00 | 0.00 | 0.00 | 67 | 1013.6 |
| 20260509143806 | 21 | 148 | 0.0 | 4.8 | 0.00 | 0.00 | 0.00 | 68 | 1013.6 |
| 20260509143303 | 21 | 187 | 3.2 | 4.8 | 0.00 | 0.00 | 0.00 | 70 | 1013.6 |
| 20260509142759 | 20 | 279 | 3.2 | 6.4 | 0.00 | 0.00 | 0.00 | 70 | 1013.3 |
| 20260509142255 | 21 | 218 | 1.6 | 6.4 | 0.00 | 0.00 | 0.00 | 69 | 1013.2 |
| 20260509141751 | 20 | 223 | 1.6 | 4.8 | 0.00 | 0.00 | 0.00 | 71 | 1013.4 |
| 20260509141248 | 20 | 292 | 4.8 | 6.4 | 0.00 | 0.00 | 0.00 | 72 | 1013.3 |
| 20260509140745 | 20 | 191 | 3.2 | 6.4 | 0.00 | 0.00 | 0.00 | 69 | 1013.3 |
| 20260509140242 | 21 | 129 | 0.0 | 3.2 | 0.00 | 0.00 | 0.00 | 70 | 1013.4 |
| 20260509135740 | 21 | 126 | 0.0 | 4.8 | 0.00 | 0.00 | 0.00 | 68 | 1013.3 |
| 20260509135237 | 21 | 153 | 3.2 | 3.2 | 0.00 | 0.00 | 0.00 | 70 | 1013.1 |
| 20260509134734 | 20 | 250 | 0.0 | 1.6 | 0.00 | 0.00 | 0.00 | 73 | 1013.1 |
| 20260509134232 | 20 | 269 | 0.0 | 4.8 | 0.00 | 0.00 | 0.00 | 74 | 1013.2 |
| 20260509133729 | 20 | 88 | 0.0 | 3.2 | 0.00 | 0.00 | 0.00 | 74 | 1013.1 |
| 20260509133225 | 20 | 179 | 0.0 | 3.2 | 0.00 | 0.00 | 0.00 | 75 | 1013.3 |
| 20260509132724 | 19 | 126 | 3.2 | 4.8 | 0.00 | 0.00 | 0.00 | 74 | 1013.0 |
| 20260509132222 | 18 | 130 | 3.2 | 3.2 | 0.00 | 0.00 | 0.00 | 76 | 1013.0 |
| 20260509131718 | 18 | 140 | 1.6 | 3.2 | 0.00 | 0.00 | 0.00 | 78 | 1013.0 |
| 20260509131215 | 17 | 211 | 1.6 | 1.6 | 0.00 | 0.00 | 0.00 | 84 | 1012.7 |
| 20260509130711 | 17 | 8 | 0.0 | 3.2 | 0.00 | 0.00 | 0.00 | 86 | 1013.0 |
| 20260509130207 | 16 | 231 | 0.0 | 3.2 | 0.00 | 0.00 | 0.00 | 93 | 1012.9 |
| 20260509125704 | 16 | 260 | 1.6 | 3.2 | 0.00 | 0.00 | 0.00 | 93 | 1013.1 |
| 20260509125200 | 15 | 218 | 0.0 | 3.2 | 0.00 | 0.00 | 0.00 | 96 | 1013.0 |
| 20260509124657 | 14 | 103 | 0.0 | 4.8 | 0.00 | 0.00 | 0.00 | 97 | 1013.0 |
| 20260509124154 | 13 | 174 | 1.6 | 3.2 | 0.00 | 0.00 | 0.00 | 97 | 1013.1 |
| 20260509123652 | 12 | 126 | 1.6 | 3.2 | 0.00 | 0.00 | 0.00 | 97 | 1013.1 |
| 20260509123149 | 12 | 257 | 0.0 | 3.2 | 0.00 | 0.00 | 0.00 | 97 | 1013.0 |
| 20260509122644 | 12 | 359 | 0.0 | 3.2 | 0.00 | 0.00 | 0.00 | 97 | 1013.1 |
| 20260509122141 | 11 | 135 | 3.2 | 3.2 | 0.00 | 0.00 | 0.00 | 97 | 1012.8 |
| 20260509121638 | 11 | 123 | 1.6 | 3.2 | 0.00 | 0.00 | 0.00 | 97 | 1012.8 |
| 20260509121136 | 11 | 104 | 0.0 | 3.2 | 0.00 | 0.00 | 0.00 | 97 | 1012.8 |
| 20260509120634 | 11 | 67 | 1.6 | 3.2 | 0.00 | 0.00 | 0.00 | 97 | 1012.5 |
| 20260509120132 | 11 | 121 | 0.0 | 4.8 | 0.00 | 0.00 | 0.00 | 97 | 1012.5 |
| 20260509115629 | 11 | 121 | 0.0 | 4.8 | 0.00 | 0.00 | 0.00 | 97 | 1012.5 |
| 20260509115126 | 10 | 84 | 1.6 | 3.2 | 0.00 | 0.00 | 0.00 | 96 | 1012.5 |
| 20260509114624 | 10 | 256 | 1.6 | 3.2 | 0.00 | 0.00 | 0.00 | 96 | 1012.6 |
| 20260509114123 | 10 | 78 | 0.0 | 3.2 | 0.00 | 0.00 | 0.00 | 96 | 1012.6 |
| 20260509113621 | 10 | 194 | 1.6 | 4.8 | 0.00 | 0.00 | 0.00 | 96 | 1012.7 |
| 20260509113118 | 10 | 233 | 1.6 | 3.2 | 0.05 | 0.00 | 0.00 | 96 | 1012.5 |
| 20260509112614 | 10 | 233 | 1.6 | 3.2 | 0.05 | 0.00 | 0.00 | 96 | 1012.5 |
| 20260509112112 | 10 | 79 | 1.6 | 4.8 | 0.00 | 0.00 | 0.00 | 96 | 1012.5 |
| 20260509111609 | 10 | 167 | 3.2 | 3.2 | 0.00 | 0.00 | 0.00 | 96 | 1012.6 |
| 20260509111105 | 10 | 118 | 0.0 | 3.2 | 0.00 | 0.00 | 0.00 | 96 | 1012.4 |
| 20260509110602 | 10 | 275 | 0.0 | 3.2 | 0.00 | 0.00 | 0.00 | 96 | 1012.3 |
| 20260509110059 | 10 | 83 | 0.0 | 3.2 | 0.00 | 0.00 | 0.00 | 96 | 1012.4 |
| 20260509105558 | 10 | 185 | 1.6 | 4.8 | 0.00 | 0.00 | 0.00 | 96 | 1012.2 |
| 20260509105055 | 10 | 112 | 1.6 | 3.2 | 0.00 | 0.00 | 0.00 | 96 | 1012.1 |
| 20260509104551 | 10 | 71 | 0.0 | 4.8 | 0.00 | 0.00 | 0.00 | 96 | 1012.1 |
| 20260509104048 | 10 | 254 | 0.0 | 3.2 | 0.00 | 0.00 | 0.00 | 95 | 1012.1 |
| 20260509103547 | 10 | 187 | 1.6 | 3.2 | 0.00 | 0.00 | 0.00 | 95 | 1011.9 |
| 20260509103045 | 10 | 301 | 0.0 | 3.2 | 0.00 | 0.00 | 0.00 | 95 | 1012.0 |
| 20260509102542 | 10 | 85 | 0.0 | 3.2 | 0.00 | 0.00 | 0.00 | 96 | 1012.2 |
| 20260509102038 | 10 | 85 | 0.0 | 3.2 | 0.00 | 0.00 | 0.00 | 96 | 1012.2 |
| 20260509101534 | 10 | 60 | 0.0 | 3.2 | 0.00 | 0.00 | 0.00 | 95 | 1011.8 |
| 20260509101032 | 10 | 45 | 1.6 | 3.2 | 0.00 | 0.00 | 0.00 | 95 | 1012.0 |
| 20260509100529 | 10 | 158 | 1.6 | 3.2 | 0.00 | 0.00 | 0.00 | 95 | 1011.9 |
| 20260509100026 | 10 | 192 | 1.6 | 3.2 | 0.00 | 0.00 | 0.00 | 95 | 1011.8 |
| 20260509095523 | 10 | 92 | 0.0 | 3.2 | 0.00 | 0.00 | 0.00 | 95 | 1011.9 |
| 20260509095020 | 10 | 92 | 0.0 | 3.2 | 0.00 | 0.00 | 0.00 | 95 | 1011.9 |
| 20260509094516 | 10 | 107 | 3.2 | 3.2 | 0.00 | 0.00 | 0.00 | 95 | 1012.1 |
| 20260509094014 | 10 | 213 | 0.0 | 3.2 | 0.00 | 0.00 | 0.00 | 95 | 1012.0 |
| 20260509093512 | 10 | 49 | 1.6 | 3.2 | 0.00 | 0.00 | 0.00 | 95 | 1011.9 |
| 20260509093009 | 10 | 50 | 0.0 | 3.2 | 0.00 | 0.00 | 0.00 | 95 | 1012.2 |
| 20260509092507 | 11 | 76 | 0.0 | 3.2 | 0.00 | 0.00 | 0.00 | 95 | 1012.1 |
| 20260509092005 | 11 | 118 | 0.0 | 3.2 | 0.00 | 0.00 | 0.00 | 95 | 1012.1 |
| 20260509091502 | 11 | 118 | 0.0 | 3.2 | 0.00 | 0.00 | 0.00 | 95 | 1012.1 |
| 20260509090958 | 11 | 20 | 1.6 | 3.2 | 0.00 | 0.00 | 0.00 | 95 | 1012.2 |
| 20260509090456 | 11 | 74 | 0.0 | 3.2 | 0.00 | 0.00 | 0.00 | 95 | 1012.2 |
| 20260509085953 | 11 | 299 | 1.6 | 3.2 | 0.00 | 0.00 | 0.00 | 95 | 1012.2 |
| 20260509085450 | 11 | 143 | 0.0 | 3.2 | 0.00 | 0.00 | 0.00 | 95 | 1012.3 |
| 20260509084946 | 11 | 236 | 0.0 | 3.2 | 0.00 | 0.00 | 0.00 | 95 | 1012.4 |
| 20260509084443 | 11 | 162 | 0.0 | 3.2 | 0.00 | 0.00 | 0.00 | 95 | 1012.2 |
| 20260509083941 | 11 | 69 | 0.0 | 3.2 | 0.00 | 0.00 | 0.00 | 95 | 1012.5 |
| 20260509083438 | 11 | 348 | 0.0 | 3.2 | 0.00 | 0.00 | 0.00 | 95 | 1012.4 |